Powrót do katalogu

FENGYUN 1C DEB *

LostPO
NORAD 46998·DEBRIS·🇨🇳 China

Wystrzelony May 10, 1999 z Taiyuan Satellite Launch Center

Loading…

Następne Przeloty (najbliższe 24 godziny)

TLE

NieaktualneSource: Space-Track

Epoka: Oct 25, 2021, 08:45 UTC

1 46998U 99025EZY 21298.36492819  .00001589  00000-0  17189-2 0  9996
2 46998  98.2493 209.3992 0271875 332.7471  25.9624 13.59564358504932

Śledź FENGYUN 1C DEB * w czasie rzeczywistym z AllMySat

Download on the App Store